Regional Weather Roundup
Issued by NWS

Home | Current Version | Previous Version | Graphics & Text | Print | Product List | Glossary On
Versions: 1 2 3 4 5 6 7 8 9 10 11 12 13 14 15 16 17 18 19 20 21 22 23 24 25 26 27 28 29 30 31 32 33 34 35 36 37 38 39 40 41 42 43 44 45 46 47 48 49 50
000
ASUS43 KLOT 031508
RWRIL

ILLINOIS REGIONAL WEATHER ROUNDUP
NATIONAL WEATHER SERVICE CHICAGO/ROMEOVILLE IL
1000 AM CDT TUE MAY 03 2016

NOTE: "FAIR" INDICATES FEW OR NO CLOUDS BELOW 12,000 FEET WITH NO
SIGNIFICANT WEATHER AND/OR OBSTRUCTIONS TO VISIBILITY.

* THESE STATIONS ARE NOT UNDER NWS QUALITY CONTROL. THEY ALSO MAY NOT
  REPORT WEATHER SUCH AS PRECIPITATION OR FOG.

ILZ001-002-007-009-015-016-024-031600-
NORTHWEST ILLINOIS

CITY           SKY/WX    TMP DP  RH WIND       PRES   REMARKS
MOLINE         SUNNY     60  44  55 W9G17     30.00F
STERLING*      SUNNY     61  46  59 NW10      29.99F
SAVANNA*       SUNNY     58  44  60 W6        29.99S
$$

ILZ003-004-008-010-011-017-018-031600-
NORTH CENTRAL ILLINOIS

CITY           SKY/WX    TMP DP  RH WIND       PRES   REMARKS
ROCKFORD       MOSUNNY   61  44  53 NW13      29.98F
FREEPORT*      SUNNY     59  45  59 W9        29.99F
ROCHELLE*      SUNNY     58  45  62 NW8       29.98F
DE KALB*       SUNNY     58  45  61 NW9       29.98S
$$

ILZ005-006-012>014-019>023-031600-
NORTHEAST ILLINOIS

CITY           SKY/WX    TMP DP  RH WIND       PRES   REMARKS
CHICAGO-OHARE  MOSUNNY   59  39  47 W8        29.95F
CHICAGO-MIDWAY MOSUNNY   60  35  39 SW7       29.96F
AURORA         MOSUNNY   59  47  64 NW7       29.97F
LANSING*       SUNNY     59  34  38 CALM      29.96F
JOLIET*        SUNNY     60  42  52 W5        29.97S
WAUKEGAN       PTSUNNY   59  41  51 W6        29.93F
DUPAGE AIRPORT PTSUNNY   60  41  49 W7        29.95F
KANKAKEE*      SUNNY     58  37  44 NW9       29.97F
WHEELING       MOSUNNY   60  38  43 W6        29.96F
MORRIS*        MOSUNNY   59  44  58 NW9       29.96F
ROMEOVILLE*    SUNNY     58  41  51 W7        29.97F
NORTHERLY ISL    N/A     59  31  34 SW3         N/A
NORTHERLY ISL    N/A     59  31  34 SW3         N/A
$$

LMZ740>746-031600-
SOUTHERN LAKE MICHIGAN

STATION/POSITION SKY/WX   TEMP    WIND        PRES    VSBY  WAVE
                          AIR SEA DIR/SP/G                  HT/PER
                          (F)     (DEG/KT/KT) (MB)    (MI)  (FT/S)
SOUTHERN BUOY              44 41  190/  8/  8 1013.8          0
HARRISON CRIB              54     230/  2/  2   N/A
BURNHAM HARBOR             59     200/  5/  9   N/A
CALUMET HARBOR             57     230/  4/  6 1014.1F
BURNS HARBOR               49     280/  2/  4 1015.6F
MICHIGAN CITY              46     200/  3/  4   N/A
ST. JOSEPH                 47 48                N/A           1
$$

ILZ025>027-034>036-040-047-049-050-058-095>099-031600-
WEST-CENTRAL ILLINOIS

CITY           SKY/WX    TMP DP  RH WIND       PRES   REMARKS
QUINCY         PTSUNNY   58  45  62 NW8       30.05S
GALESBURG*     SUNNY     58  45  62 NW8       30.02S
MACOMB*        SUNNY     59  45  58 NW12      30.05S
JACKSONVILLE*  SUNNY     59  46  61 N5        30.04S
PITTSFIELD*    SUNNY     58  46  64 NW6       30.05F
$$

ILZ028>032-037-038-041>044-048-051>054-059>061-031600-
CENTRAL ILLINOIS

CITY           SKY/WX    TMP DP  RH WIND       PRES   REMARKS
PONTIAC        SUNNY     60  46  59 NW8       29.99F
BLOOMINGTON    SUNNY     59  44  57 NW12      30.01S
DECATUR        SUNNY     60  41  49 N13       30.02R
PEORIA         SUNNY     59  44  57 NW7       30.01F
LACON*         SUNNY     60  44  55 NW10      29.99F
LINCOLN*       SUNNY     60  47  62 NW5       30.02S
SPRINGFIELD    SUNNY     61  45  55 N8        30.03S
TAYLORVILLE    SUNNY     57  43  59 NW6       30.03R
$$

ILZ033-039-045-046-055>057-062-063-031600-
EAST-CENTRAL ILLINOIS

CITY           SKY/WX    TMP DP  RH WIND       PRES   REMARKS
CHAMPAIGN      SUNNY     59  42  53 NW10      30.00R
RANTOUL*       SUNNY     60  44  55 NW12      29.99S
MATTOON        SUNNY     57  44  62 NW12      30.00S
PARIS*         MOSUNNY   55  44  68 NW7       30.00S
$$

ILZ079-100>102-031600-
SOUTHWEST ILLINOIS

CITY           SKY/WX    TMP DP  RH WIND       PRES   REMARKS
ALTON          SUNNY     59  46  63 N9        30.04S
BELLEVILLE     MOSUNNY   61  50  67 NW10      30.02S
CAHOKIA*       MOSUNNY   62  48  60 NW8       30.04S
SPARTA*        PTSUNNY   59  50  73 NW5       30.05S
$$

ILZ064>066-069>071-074>076-080>082-084>086-088>090-092>094-031600-
SOUTH-CENTRAL ILLINOIS

CITY           SKY/WX    TMP DP  RH WIND       PRES   REMARKS
CARBONDALE     MOSUNNY   60  48  64 N9        30.03S
CAIRO*         CLOUDY    58  49  73 NW6       30.03S
EFFINGHAM*     SUNNY     57  46  66 N9        30.03S
MARION         PTSUNNY   59  50  72 N12       30.03S
MT. VERNON     SUNNY     61  43  51 N7        30.03R
CENTRALIA*     SUNNY     60  47  62 N8        30.02R
SALEM*         SUNNY     60  43  53 NW12      30.02S
METROPOLIS*    CLOUDY    59  53  79 NW6       30.03S
$$

ILZ067-068-072-073-078-083-087-091-031600-
SOUTHEAST ILLINOIS

CITY           SKY/WX    TMP DP  RH WIND       PRES   REMARKS
LAWRENCEVILLE  PTSUNNY   57  49  74 N13       30.00R
FLORA*         SUNNY     59  44  56 N10       30.02R
FAIRFIELD*     SUNNY     58  45  61 NW8       30.01S
HARRISBURG*    PTSUNNY   59  47  63 N10       30.02S
ROBINSON*      CLOUDY    54  48  82 NW8       30.01S
CARMI*         SUNNY     58  47  66 N12       30.00S
$$

ABBREVIATIONS USED IN REMARKS
   TC - TEMPERATURE IN CELSIUS
  WCI - WIND CHILL INDEX
   HX - HEAT INDEX
  VSB - VISIBILITY
$$




USA.gov is the U.S. government's official web portal to all federal, state and local government web resources and services.